Time,TemperatureF,DewpointF,PressureIn,WindDirection,WindDirectionDegrees,WindSpeedMPH,WindSpeedGustMPH,Humidity,HourlyPrecipIn,Conditions,Clouds,dailyrainin,SoftwareType,DateUTC
2015-07-05 00:01:00,67.3,65.5,29.86,SSE,151,1.2,0.0,94,0.00,RA,,0.00,WeatherDisplay:10.37,2015-07-04 15:01:00,
2015-07-05 00:06:00,67.3,65.5,29.86,SSE,151,0.0,0.0,94,0.00,RA,,0.00,WeatherDisplay:10.37,2015-07-04 15:06:00,
2015-07-05 00:11:00,67.3,65.5,29.86,SSE,151,0.0,0.0,94,0.00,CLR,,0.00,WeatherDisplay:10.37,2015-07-04 15:11:00,
2015-07-05 00:16:00,67.3,65.5,29.86,SSE,151,0.0,0.0,94,0.00,CLR,,0.00,WeatherDisplay:10.37,2015-07-04 15:16:00,
2015-07-05 00:21:00,67.3,65.8,29.86,SSE,153,0.0,0.0,95,0.00,CLR,,0.00,WeatherDisplay:10.37,2015-07-04 15:21:00,
2015-07-05 00:26:00,67.3,65.8,29.86,SSE,153,0.0,0.0,95,0.00,CLR,,0.00,WeatherDisplay:10.37,2015-07-04 15:26:00,
2015-07-05 00:31:00,67.3,65.8,29.86,SSE,153,0.0,0.0,95,0.00,CLR,,0.00,WeatherDisplay:10.37,2015-07-04 15:31:00,
2015-07-05 00:36:00,67.3,65.8,29.87,SSE,153,0.0,0.0,95,0.00,CLR,,0.00,WeatherDisplay:10.37,2015-07-04 15:36:00,
2015-07-05 00:41:00,67.2,65.7,29.86,SE,144,1.2,1.2,95,0.00,CLR,,0.00,WeatherDisplay:10.37,2015-07-04 15:41:00,
2015-07-05 00:46:00,67.1,65.6,29.87,SE,144,0.0,0.0,95,0.00,CLR,,0.00,WeatherDisplay:10.37,2015-07-04 15:46:00,
2015-07-05 00:51:00,67.2,65.7,29.86,SE,144,0.0,0.0,95,0.00,CLR,,0.00,WeatherDisplay:10.37,2015-07-04 15:51:00,
2015-07-05 00:56:00,67.1,65.6,29.86,SE,144,1.2,1.2,95,0.00,CLR,,0.00,WeatherDisplay:10.37,2015-07-04 15:56:00,
2015-07-05 01:01:00,67.0,65.5,29.86,SE,144,2.0,2.0,95,0.00,CLR,,0.00,WeatherDisplay:10.37,2015-07-04 16:01:00,
2015-07-05 01:06:00,66.9,65.4,29.87,SE,144,1.2,1.2,95,0.00,CLR,,0.00,WeatherDisplay:10.37,2015-07-04 16:06:00,
2015-07-05 01:11:00,66.9,65.4,29.86,SE,144,0.0,0.2,95,0.00,CLR,,0.00,WeatherDisplay:10.37,2015-07-04 16:11:00,
2015-07-05 01:16:00,66.8,65.3,29.86,SSE,147,4.0,4.0,95,0.00,CLR,,0.00,WeatherDisplay:10.37,2015-07-04 16:16:00,
2015-07-05 01:21:00,66.7,65.2,29.86,SSE,152,3.5,3.5,95,0.00,CLR,,0.00,WeatherDisplay:10.37,2015-07-04 16:21:00,
2015-07-05 01:26:00,66.6,65.1,29.86,SE,143,3.5,3.5,95,0.00,CLR,,0.00,WeatherDisplay:10.37,2015-07-04 16:26:00,
2015-07-05 01:31:00,66.6,65.1,29.86,ESE,103,2.3,2.3,95,0.00,CLR,,0.00,WeatherDisplay:10.37,2015-07-04 16:31:00,
2015-07-05 01:36:00,66.6,65.1,29.86,East,85,3.5,3.5,95,0.00,CLR,,0.00,WeatherDisplay:10.37,2015-07-04 16:36:00,
2015-07-05 01:41:00,66.6,65.1,29.86,East,91,1.2,1.2,95,0.00,CLR,,0.00,WeatherDisplay:10.37,2015-07-04 16:41:00,
2015-07-05 01:46:00,66.5,65.0,29.86,ESE,117,3.0,3.0,95,0.00,CLR,,0.00,WeatherDisplay:10.37,2015-07-04 16:46:00,
2015-07-05 01:51:00,66.4,64.9,29.86,East,93,3.5,3.5,95,0.00,CLR,,0.00,WeatherDisplay:10.37,2015-07-04 16:51:00,
2015-07-05 01:56:00,66.3,64.8,29.86,East,92,2.3,2.3,95,0.00,CLR,,0.00,WeatherDisplay:10.37,2015-07-04 16:56:00,
2015-07-05 02:01:00,66.4,64.9,29.85,ENE,70,3.5,3.5,95,0.00,CLR,,0.00,WeatherDisplay:10.37,2015-07-04 17:01:00,
2015-07-05 02:07:00,66.4,64.9,29.85,East,80,3.5,3.5,95,0.00,CLR,,0.00,WeatherDisplay:10.37,2015-07-04 17:07:00,
2015-07-05 02:12:00,66.4,64.9,29.85,East,80,1.2,1.2,95,0.00,CLR,,0.00,WeatherDisplay:10.37,2015-07-04 17:12:00,
2015-07-05 02:17:00,66.3,64.8,29.85,East,80,2.3,2.3,95,0.00,CLR,,0.00,WeatherDisplay:10.37,2015-07-04 17:17:00,
2015-07-05 02:22:00,66.3,64.8,29.84,East,80,1.2,0.0,95,0.00,CLR,,0.00,WeatherDisplay:10.37,2015-07-04 17:22:00,
2015-07-05 02:27:00,66.2,64.7,29.84,East,95,4.6,4.6,95,0.00,CLR,,0.00,WeatherDisplay:10.37,2015-07-04 17:27:00,
2015-07-05 02:32:00,66.1,64.6,29.85,East,95,2.3,2.3,95,0.00,CLR,,0.00,WeatherDisplay:10.37,2015-07-04 17:32:00,
2015-07-05 02:37:00,66.1,64.6,29.85,East,95,3.5,3.5,95,0.00,CLR,,0.00,WeatherDisplay:10.37,2015-07-04 17:37:00,
2015-07-05 02:42:00,66.1,64.6,29.85,East,96,2.3,2.3,95,0.00,CLR,,0.00,WeatherDisplay:10.37,2015-07-04 17:42:00,
2015-07-05 02:47:00,66.2,64.7,29.85,East,100,1.2,1.2,95,0.00,CLR,,0.00,WeatherDisplay:10.37,2015-07-04 17:47:00,
2015-07-05 02:52:00,66.2,64.7,29.85,East,100,0.0,0.0,95,0.00,CLR,,0.00,WeatherDisplay:10.37,2015-07-04 17:52:00,
2015-07-05 02:57:00,66.2,64.7,29.85,East,100,0.0,0.0,95,0.00,CLR,,0.00,WeatherDisplay:10.37,2015-07-04 17:57:00,
2015-07-05 03:02:00,66.2,64.7,29.85,East,100,0.0,0.0,95,0.00,CLR,,0.00,WeatherDisplay:10.37,2015-07-04 18:02:00,
2015-07-05 03:07:00,66.2,64.7,29.85,East,99,0.0,0.0,95,0.00,CLR,,0.00,WeatherDisplay:10.37,2015-07-04 18:07:00,
2015-07-05 03:12:00,66.3,64.8,29.85,East,100,0.0,0.0,95,0.00,CLR,,0.00,WeatherDisplay:10.37,2015-07-04 18:12:00,
2015-07-05 03:17:00,66.3,64.8,29.84,East,100,2.3,2.3,95,0.00,CLR,,0.00,WeatherDisplay:10.37,2015-07-04 18:17:00,
2015-07-05 03:22:00,66.3,64.8,29.84,East,100,0.0,0.0,95,0.00,CLR,,0.00,WeatherDisplay:10.37,2015-07-04 18:22:00,
2015-07-05 03:27:00,66.3,64.8,29.85,East,99,1.2,1.2,95,0.00,CLR,,0.00,WeatherDisplay:10.37,2015-07-04 18:27:00,
2015-07-05 03:32:00,66.2,64.4,29.85,East,100,3.5,3.5,94,0.00,CLR,,0.00,WeatherDisplay:10.37,2015-07-04 18:32:00,
2015-07-05 03:37:00,66.2,64.4,29.84,East,99,2.3,2.3,94,0.00,CLR,,0.00,WeatherDisplay:10.37,2015-07-04 18:37:00,
2015-07-05 03:42:00,66.2,64.4,29.84,East,100,1.2,1.2,94,0.00,CLR,,0.00,WeatherDisplay:10.37,2015-07-04 18:42:00,
2015-07-05 03:47:00,66.3,64.5,29.85,East,99,1.2,1.2,94,0.00,CLR,,0.00,WeatherDisplay:10.37,2015-07-04 18:47:00,
2015-07-05 03:52:00,66.3,64.5,29.85,East,98,2.3,2.3,94,0.00,CLR,,0.00,WeatherDisplay:10.37,2015-07-04 18:52:00,
2015-07-05 03:57:00,66.3,64.5,29.85,East,94,3.5,3.5,94,0.00,CLR,,0.00,WeatherDisplay:10.37,2015-07-04 18:57:00,
2015-07-05 04:02:00,66.3,64.5,29.85,East,93,3.5,3.5,94,0.00,CLR,,0.00,WeatherDisplay:10.37,2015-07-04 19:02:00,
2015-07-05 04:07:00,66.2,64.4,29.85,East,96,2.3,2.3,94,0.00,CLR,,0.00,WeatherDisplay:10.37,2015-07-04 19:07:00,
2015-07-05 04:12:00,66.1,64.3,29.85,East,100,2.3,2.3,94,0.00,CLR,,0.00,WeatherDisplay:10.37,2015-07-04 19:12:00,
2015-07-05 04:17:00,66.1,64.3,29.85,ESE,110,3.0,3.0,94,0.00,CLR,,0.00,WeatherDisplay:10.37,2015-07-04 19:17:00,
2015-07-05 04:22:00,66.0,64.2,29.85,ESE,110,2.3,2.3,94,0.00,CLR,,0.00,WeatherDisplay:10.37,2015-07-04 19:22:00,
2015-07-05 04:27:00,66.0,64.2,29.85,ESE,110,1.2,1.2,94,0.00,CLR,,0.00,WeatherDisplay:10.37,2015-07-04 19:27:00,
2015-07-05 04:32:00,66.0,64.2,29.85,ESE,110,1.2,1.2,94,0.00,CLR,,0.00,WeatherDisplay:10.37,2015-07-04 19:32:00,
2015-07-05 04:37:00,66.0,64.5,29.85,ESE,110,1.0,1.0,95,0.00,CLR,,0.00,WeatherDisplay:10.37,2015-07-04 19:37:00,
2015-07-05 04:42:00,66.0,64.5,29.85,ESE,110,1.2,1.2,95,0.00,CLR,,0.00,WeatherDisplay:10.37,2015-07-04 19:42:00,
2015-07-05 04:47:00,66.0,64.2,29.85,ESE,109,2.3,2.3,94,0.00,CLR,,0.00,WeatherDisplay:10.37,2015-07-04 19:47:00,
2015-07-05 04:52:00,65.8,64.3,29.85,SE,143,4.0,4.0,95,0.00,CLR,,0.00,WeatherDisplay:10.37,2015-07-04 19:52:00,
2015-07-05 04:57:00,65.8,64.3,29.85,SSE,148,4.6,4.6,95,0.00,CLR,,0.00,WeatherDisplay:10.37,2015-07-04 19:57:00,
2015-07-05 05:02:00,65.7,64.2,29.85,SE,133,3.5,3.5,95,0.00,CLR,,0.00,WeatherDisplay:10.37,2015-07-04 20:02:00,
2015-07-05 05:07:00,65.6,64.1,29.85,SE,133,2.3,2.3,95,0.00,CLR,,0.00,WeatherDisplay:10.37,2015-07-04 20:07:00,
2015-07-05 05:12:00,65.6,64.1,29.85,SE,132,1.2,0.0,95,0.00,CLR,,0.00,WeatherDisplay:10.37,2015-07-04 20:12:00,
2015-07-05 05:17:00,65.6,64.1,29.86,SE,133,0.0,0.0,95,0.00,CLR,,0.00,WeatherDisplay:10.37,2015-07-04 20:17:00,
2015-07-05 05:22:00,65.7,64.2,29.86,SE,133,1.2,1.2,95,0.00,CLR,,0.00,WeatherDisplay:10.37,2015-07-04 20:22:00,
2015-07-05 05:27:00,65.7,64.2,29.86,SE,133,0.0,0.0,95,0.00,CLR,,0.00,WeatherDisplay:10.37,2015-07-04 20:27:00,
2015-07-05 05:32:00,65.7,64.2,29.86,SE,133,0.0,0.0,95,0.00,CLR,,0.00,WeatherDisplay:10.37,2015-07-04 20:32:00,
2015-07-05 05:37:00,65.7,64.2,29.86,SE,133,0.0,0.0,95,0.00,CLR,,0.00,WeatherDisplay:10.37,2015-07-04 20:37:00,
2015-07-05 05:42:00,65.7,64.2,29.85,SE,133,1.2,0.0,95,0.00,CLR,,0.00,WeatherDisplay:10.37,2015-07-04 20:42:00,
2015-07-05 05:47:00,65.7,64.2,29.85,SE,133,1.2,0.0,95,0.00,CLR,,0.00,WeatherDisplay:10.37,2015-07-04 20:47:00,
2015-07-05 05:52:00,65.8,64.3,29.86,SE,133,0.0,0.0,95,0.00,CLR,,0.00,WeatherDisplay:10.37,2015-07-04 20:52:00,
2015-07-05 05:57:00,65.9,64.4,29.86,SE,133,1.2,0.0,95,0.00,CLR,,0.00,WeatherDisplay:10.37,2015-07-04 20:57:00,
2015-07-05 06:02:00,65.9,64.4,29.86,SE,133,0.0,0.0,95,0.00,CLR,,0.00,WeatherDisplay:10.37,2015-07-04 21:02:00,
2015-07-05 06:07:00,65.9,64.4,29.86,SE,133,1.2,0.0,95,0.00,CLR,,0.00,WeatherDisplay:10.37,2015-07-04 21:07:00,
2015-07-05 06:12:00,66.0,64.5,29.86,SE,132,2.3,2.3,95,0.00,CLR,,0.00,WeatherDisplay:10.37,2015-07-04 21:12:00,
2015-07-05 06:17:00,65.9,64.4,29.85,ESE,118,3.5,3.5,95,0.00,CLR,,0.00,WeatherDisplay:10.37,2015-07-04 21:17:00,
2015-07-05 06:22:00,66.1,64.6,29.86,ESE,118,1.2,0.0,95,0.00,CLR,,0.00,WeatherDisplay:10.37,2015-07-04 21:22:00,
2015-07-05 06:27:00,66.1,64.6,29.86,ESE,118,0.0,0.0,95,0.00,CLR,,0.00,WeatherDisplay:10.37,2015-07-04 21:27:00,
2015-07-05 06:32:00,66.1,64.6,29.86,ESE,118,0.0,0.0,95,0.00,CLR,,0.00,WeatherDisplay:10.37,2015-07-04 21:32:00,
2015-07-05 06:37:00,66.2,64.7,29.86,ESE,118,0.0,0.0,95,0.00,CLR,,0.00,WeatherDisplay:10.37,2015-07-04 21:37:00,
2015-07-05 06:42:00,66.4,64.9,29.86,ESE,118,1.2,0.0,95,0.00,CLR,,0.00,WeatherDisplay:10.37,2015-07-04 21:42:00,
2015-07-05 06:47:00,66.6,65.1,29.85,ESE,118,0.0,0.0,95,0.00,CLR,,0.00,WeatherDisplay:10.37,2015-07-04 21:47:00,
2015-07-05 06:52:00,66.7,65.2,29.86,ESE,118,1.2,1.2,95,0.00,CLR,,0.00,WeatherDisplay:10.37,2015-07-04 21:52:00,
2015-07-05 06:57:00,66.7,64.9,29.86,ESE,118,0.0,0.0,94,0.00,CLR,,0.00,WeatherDisplay:10.37,2015-07-04 21:57:00,
2015-07-05 07:02:00,66.8,65.3,29.86,ESE,118,0.0,0.0,95,0.00,CLR,,0.00,WeatherDisplay:10.37,2015-07-04 22:02:00,
2015-07-05 07:07:00,66.9,65.4,29.86,ESE,118,0.0,0.1,95,0.00,CLR,,0.00,WeatherDisplay:10.37,2015-07-04 22:07:00,
2015-07-05 07:12:00,67.0,65.2,29.86,ESE,118,2.3,2.3,94,0.00,CLR,,0.00,WeatherDisplay:10.37,2015-07-04 22:12:00,
2015-07-05 07:17:00,67.0,65.2,29.86,ESE,118,1.0,1.0,94,0.00,CLR,,0.00,WeatherDisplay:10.37,2015-07-04 22:17:00,
2015-07-05 07:22:00,67.1,65.3,29.86,ESE,117,2.3,2.3,94,0.00,CLR,,0.00,WeatherDisplay:10.37,2015-07-04 22:22:00,
2015-07-05 07:27:00,67.3,65.5,29.86,ESE,115,2.3,2.3,94,0.00,CLR,,0.00,WeatherDisplay:10.37,2015-07-04 22:27:00,
2015-07-05 07:32:00,67.3,65.5,29.86,ESE,115,1.2,0.0,94,0.00,CLR,,0.00,WeatherDisplay:10.37,2015-07-04 22:32:00,
2015-07-05 07:37:00,67.4,65.6,29.86,ESE,115,1.2,1.2,94,0.00,CLR,,0.00,WeatherDisplay:10.37,2015-07-04 22:37:00,
2015-07-05 07:42:00,67.5,65.4,29.86,ESE,115,0.0,0.4,93,0.00,CLR,,0.00,WeatherDisplay:10.37,2015-07-04 22:42:00,
2015-07-05 07:47:00,67.7,65.6,29.86,SE,125,3.5,3.5,93,0.00,CLR,,0.00,WeatherDisplay:10.37,2015-07-04 22:47:00,
2015-07-05 07:53:00,67.9,65.8,29.86,SE,129,2.3,2.3,93,0.00,CLR,,0.00,WeatherDisplay:10.37,2015-07-04 22:53:00,
2015-07-05 07:58:00,68.2,65.8,29.86,SE,128,1.2,0.0,92,0.00,CLR,,0.00,WeatherDisplay:10.37,2015-07-04 22:58:00,
2015-07-05 08:03:00,68.6,66.2,29.86,ESE,112,1.2,1.2,92,0.00,CLR,,0.00,WeatherDisplay:10.37,2015-07-04 23:03:00,
2015-07-05 08:08:00,68.8,66.1,29.86,ESE,112,0.0,0.0,91,0.00,CLR,,0.00,WeatherDisplay:10.37,2015-07-04 23:08:00,
2015-07-05 08:13:00,69.1,66.4,29.86,ESE,112,1.2,1.2,91,0.00,CLR,,0.00,WeatherDisplay:10.37,2015-07-04 23:13:00,
2015-07-05 08:18:00,69.4,66.3,29.86,NNE,31,3.5,3.5,90,0.00,CLR,,0.00,WeatherDisplay:10.37,2015-07-04 23:18:00,
2015-07-05 08:23:00,69.7,66.6,29.86,NNE,28,1.2,0.0,90,0.00,CLR,,0.00,WeatherDisplay:10.37,2015-07-04 23:23:00,
2015-07-05 08:28:00,69.9,66.5,29.86,NNE,31,0.0,0.0,89,0.00,CLR,,0.00,WeatherDisplay:10.37,2015-07-04 23:28:00,
2015-07-05 08:33:00,70.3,66.9,29.86,WNW,294,2.3,2.3,89,0.00,CLR,,0.00,WeatherDisplay:10.37,2015-07-04 23:33:00,
2015-07-05 08:38:00,70.7,67.3,29.86,NNE,29,9.2,9.2,89,0.00,CLR,,0.00,WeatherDisplay:10.37,2015-07-04 23:38:00,
2015-07-05 08:43:00,70.8,67.1,29.86,NNE,19,8.1,8.1,88,0.00,CLR,,0.00,WeatherDisplay:10.37,2015-07-04 23:43:00,
2015-07-05 08:48:00,70.9,67.2,29.86,NNE,23,8.1,8.1,88,0.00,CLR,,0.00,WeatherDisplay:10.37,2015-07-04 23:48:00,
2015-07-05 08:53:00,70.9,66.8,29.86,NNE,33,6.9,6.9,87,0.00,CLR,,0.00,WeatherDisplay:10.37,2015-07-04 23:53:00,
2015-07-05 08:58:00,70.9,66.8,29.86,NNE,22,5.8,5.8,87,0.00,CLR,,0.00,WeatherDisplay:10.37,2015-07-04 23:58:00,
2015-07-05 09:03:00,71.0,66.9,29.86,NNE,15,9.2,9.2,87,0.00,CLR,,0.00,WeatherDisplay:10.37,2015-07-05 00:03:00,
2015-07-05 09:08:00,71.2,67.1,29.86,North,354,3.5,3.5,87,0.00,CLR,,0.00,WeatherDisplay:10.37,2015-07-05 00:08:00,
2015-07-05 09:13:00,71.4,67.3,29.86,NNW,348,6.9,6.9,87,0.00,CLR,,0.00,WeatherDisplay:10.37,2015-07-05 00:13:00,
2015-07-05 09:18:00,71.4,67.3,29.86,NNE,15,9.2,9.2,87,0.00,CLR,,0.00,WeatherDisplay:10.37,2015-07-05 00:18:00,
2015-07-05 09:23:00,71.5,67.4,29.85,North,354,11.5,11.5,87,0.00,CLR,,0.00,WeatherDisplay:10.37,2015-07-05 00:23:00,
2015-07-05 09:28:00,71.8,67.7,29.86,NNE,17,9.2,9.2,87,0.00,CLR,,0.00,WeatherDisplay:10.37,2015-07-05 00:28:00,
2015-07-05 09:33:00,71.6,67.2,29.85,NNE,23,9.2,9.2,86,0.00,CLR,,0.00,WeatherDisplay:10.37,2015-07-05 00:33:00,
2015-07-05 09:38:00,71.6,67.5,29.85,NNE,20,9.0,9.0,87,0.00,CLR,,0.00,WeatherDisplay:10.37,2015-07-05 00:38:00,
2015-07-05 09:43:00,71.6,67.5,29.85,NNE,18,9.2,9.2,87,0.00,CLR,,0.00,WeatherDisplay:10.37,2015-07-05 00:43:00,
2015-07-05 09:48:00,71.7,67.6,29.85,NNE,19,8.1,8.1,87,0.00,CLR,,0.00,WeatherDisplay:10.37,2015-07-05 00:48:00,
2015-07-05 09:53:00,72.1,68.0,29.85,NNE,27,6.9,6.9,87,0.00,CLR,,0.00,WeatherDisplay:10.37,2015-07-05 00:53:00,
2015-07-05 09:58:00,72.5,68.1,29.85,North,4,9.2,9.2,86,0.00,CLR,,0.00,WeatherDisplay:10.37,2015-07-05 00:58:00,
2015-07-05 10:03:00,72.8,68.0,29.85,NNE,33,6.9,6.9,85,0.00,CLR,,0.00,WeatherDisplay:10.37,2015-07-05 01:03:00,
2015-07-05 10:08:00,73.1,68.0,29.85,North,4,8.1,8.1,84,0.00,CLR,,0.00,WeatherDisplay:10.37,2015-07-05 01:08:00,
2015-07-05 10:13:00,73.3,67.8,29.85,North,359,6.9,6.9,83,0.00,CLR,,0.00,WeatherDisplay:10.37,2015-07-05 01:13:00,
2015-07-05 10:18:00,73.1,67.6,29.85,North,359,6.0,6.0,83,0.00,CLR,,0.00,WeatherDisplay:10.37,2015-07-05 01:18:00,
2015-07-05 10:23:00,72.9,67.4,29.85,North,354,8.0,8.0,83,0.00,CLR,,0.00,WeatherDisplay:10.37,2015-07-05 01:23:00,
2015-07-05 10:28:00,72.9,67.8,29.86,NE,46,4.0,4.0,84,0.00,CLR,,0.00,WeatherDisplay:10.37,2015-07-05 01:28:00,
2015-07-05 10:33:00,72.9,67.4,29.86,North,4,10.0,10.0,83,0.00,CLR,,0.00,WeatherDisplay:10.37,2015-07-05 01:33:00,
2015-07-05 10:38:00,72.8,67.3,29.86,NE,34,5.0,5.0,83,0.00,CLR,,0.00,WeatherDisplay:10.37,2015-07-05 01:38:00,
2015-07-05 10:43:00,73.1,67.6,29.85,North,9,9.2,9.2,83,0.00,CLR,,0.00,WeatherDisplay:10.37,2015-07-05 01:43:00,
2015-07-05 10:48:00,73.1,67.3,29.85,North,354,9.2,9.2,82,0.00,CLR,,0.00,WeatherDisplay:10.37,2015-07-05 01:48:00,
2015-07-05 10:53:00,73.0,67.2,29.85,NNW,343,11.5,11.5,82,0.00,CLR,,0.00,WeatherDisplay:10.37,2015-07-05 01:53:00,
2015-07-05 10:58:00,73.0,67.2,29.85,NNE,26,9.0,9.0,82,0.00,CLR,,0.00,WeatherDisplay:10.37,2015-07-05 01:58:00,
2015-07-05 11:03:00,73.1,67.6,29.85,NNE,29,12.0,12.0,83,0.00,CLR,,0.00,WeatherDisplay:10.37,2015-07-05 02:03:00,
2015-07-05 11:08:00,73.2,67.7,29.85,North,4,9.2,9.2,83,0.00,CLR,,0.00,WeatherDisplay:10.37,2015-07-05 02:08:00,
2015-07-05 11:13:00,73.4,67.6,29.85,NNE,26,11.5,11.5,82,0.00,CLR,,0.00,WeatherDisplay:10.37,2015-07-05 02:13:00,
2015-07-05 11:18:00,73.7,67.9,29.85,North,10,8.1,8.1,82,0.00,CLR,,0.00,WeatherDisplay:10.37,2015-07-05 02:18:00,
2015-07-05 11:23:00,73.8,68.0,29.85,NE,40,11.5,11.5,82,0.00,CLR,,0.00,WeatherDisplay:10.37,2015-07-05 02:23:00,
2015-07-05 11:28:00,74.1,67.9,29.85,NNE,14,11.5,11.5,81,0.00,CLR,,0.00,WeatherDisplay:10.37,2015-07-05 02:28:00,
2015-07-05 11:33:00,74.2,67.6,29.85,NNE,16,9.2,9.2,80,0.00,CLR,,0.00,WeatherDisplay:10.37,2015-07-05 02:33:00,
2015-07-05 11:38:00,74.6,68.4,29.85,NE,41,9.2,9.2,81,0.00,CLR,,0.00,WeatherDisplay:10.37,2015-07-05 02:38:00,
2015-07-05 11:43:00,74.6,68.0,29.84,North,359,10.4,10.4,80,0.00,CLR,,0.00,WeatherDisplay:10.37,2015-07-05 02:43:00,
2015-07-05 11:48:00,74.3,67.7,29.84,NE,43,12.7,12.7,80,0.00,CLR,,0.00,WeatherDisplay:10.37,2015-07-05 02:48:00,
2015-07-05 11:53:00,74.0,68.2,29.85,NNE,18,10.4,10.4,82,0.00,CLR,,0.00,WeatherDisplay:10.37,2015-07-05 02:53:00,
2015-07-05 11:58:00,74.3,68.4,29.85,NNE,18,13.0,13.0,82,0.00,CLR,,0.00,WeatherDisplay:10.37,2015-07-05 02:58:00,
2015-07-05 12:03:00,74.4,68.2,29.85,NW,323,9.2,9.2,81,0.00,CLR,,0.00,WeatherDisplay:10.37,2015-07-05 03:03:00,
2015-07-05 12:08:00,74.8,68.6,29.84,NNW,337,5.8,5.8,81,0.00,CLR,,0.00,WeatherDisplay:10.37,2015-07-05 03:08:00,
2015-07-05 12:13:00,74.4,67.8,29.84,NE,34,13.8,13.8,80,0.00,CLR,,0.00,WeatherDisplay:10.37,2015-07-05 03:13:00,
2015-07-05 12:18:00,74.2,68.3,29.83,NNE,21,10.4,10.4,82,0.00,CLR,,0.00,WeatherDisplay:10.37,2015-07-05 03:18:00,
2015-07-05 12:28:00,74.5,68.3,29.84,NNE,13,14.0,14.0,81,0.00,CLR,,0.00,WeatherDisplay:10.37,2015-07-05 03:28:00,
2015-07-05 12:33:00,74.5,68.3,29.84,NW,318,9.0,9.0,81,0.00,CLR,,0.00,WeatherDisplay:10.37,2015-07-05 03:33:00,
2015-07-05 12:38:00,74.7,68.5,29.83,North,350,11.5,11.5,81,0.00,CLR,,0.00,WeatherDisplay:10.37,2015-07-05 03:38:00,
2015-07-05 12:43:00,74.6,68.0,29.84,NNE,16,12.7,12.7,80,0.00,CLR,,0.00,WeatherDisplay:10.37,2015-07-05 03:43:00,
2015-07-05 12:48:00,74.8,68.6,29.84,NNE,20,11.5,11.5,81,0.00,CLR,,0.00,WeatherDisplay:10.37,2015-07-05 03:48:00,
2015-07-05 12:53:00,74.5,68.3,29.84,NNE,15,12.7,12.7,81,0.00,CLR,,0.00,WeatherDisplay:10.37,2015-07-05 03:53:00,
2015-07-05 12:58:00,74.6,68.4,29.83,North,9,10.4,10.4,81,0.00,CLR,,0.00,WeatherDisplay:10.37,2015-07-05 03:58:00,
2015-07-05 13:03:00,74.5,68.3,29.83,NNE,21,13.8,13.8,81,0.00,CLR,,0.00,WeatherDisplay:10.37,2015-07-05 04:03:00,
2015-07-05 13:08:00,74.4,67.8,29.83,NNE,16,12.7,12.7,80,0.00,CLR,,0.00,WeatherDisplay:10.37,2015-07-05 04:08:00,
2015-07-05 13:13:00,74.6,68.4,29.83,NNE,16,13.8,13.8,81,0.00,CLR,,0.00,WeatherDisplay:10.37,2015-07-05 04:13:00,
2015-07-05 13:18:00,74.1,67.9,29.83,NNE,27,13.8,13.8,81,0.00,CLR,,0.00,WeatherDisplay:10.37,2015-07-05 04:18:00,
2015-07-05 13:23:00,73.9,67.7,29.83,NNW,345,13.8,13.8,81,0.00,CLR,,0.00,WeatherDisplay:10.37,2015-07-05 04:23:00,
2015-07-05 13:28:00,73.9,68.1,29.83,NNE,19,8.1,8.1,82,0.00,CLR,,0.00,WeatherDisplay:10.37,2015-07-05 04:28:00,
2015-07-05 13:33:00,74.1,67.9,29.83,NNE,19,10.4,10.4,81,0.00,CLR,,0.00,WeatherDisplay:10.37,2015-07-05 04:33:00,
2015-07-05 13:38:00,74.1,67.9,29.83,North,8,11.5,11.5,81,0.00,CLR,,0.00,WeatherDisplay:10.37,2015-07-05 04:38:00,
2015-07-05 13:43:00,74.2,68.0,29.83,NNE,27,11.5,11.5,81,0.00,CLR,,0.00,WeatherDisplay:10.37,2015-07-05 04:43:00,
2015-07-05 13:48:00,74.2,68.0,29.83,North,4,11.0,11.0,81,0.00,CLR,,0.00,WeatherDisplay:10.37,2015-07-05 04:48:00,
2015-07-05 13:54:00,73.9,67.7,29.83,NW,310,11.5,11.5,81,0.00,CLR,,0.00,WeatherDisplay:10.37,2015-07-05 04:54:00,
2015-07-05 13:59:00,73.7,67.5,29.83,North,350,11.5,11.5,81,0.00,CLR,,0.00,WeatherDisplay:10.37,2015-07-05 04:59:00,
2015-07-05 14:04:00,73.7,67.5,29.83,NNE,20,15.0,15.0,81,0.00,CLR,,0.00,WeatherDisplay:10.37,2015-07-05 05:04:00,
2015-07-05 14:09:00,73.5,67.7,29.83,NNE,12,11.5,11.5,82,0.00,CLR,,0.00,WeatherDisplay:10.37,2015-07-05 05:09:00,
2015-07-05 14:14:00,73.7,68.2,29.82,NW,322,8.0,8.0,83,0.00,CLR,,0.00,WeatherDisplay:10.37,2015-07-05 05:14:00,
2015-07-05 14:19:00,73.7,68.2,29.82,North,8,4.6,4.6,83,0.00,CLR,,0.00,WeatherDisplay:10.37,2015-07-05 05:19:00,
2015-07-05 14:24:00,73.6,67.8,29.82,NW,316,9.2,9.2,82,0.00,CLR,,0.00,WeatherDisplay:10.37,2015-07-05 05:24:00,
2015-07-05 14:29:00,73.5,68.0,29.82,NNW,331,10.4,10.4,83,0.00,CLR,,0.00,WeatherDisplay:10.37,2015-07-05 05:29:00,